| time (UTC) | temp F | wind direction | speed knots | gust knots | rain 1hr in | rain 24hr in | rain mn in | humidity % | barometer mb |
| 20260906212226 | 93 | 127 | 7.8 | 10.4 | 0.00 | 0.00 | 0.00 | 31 | 1016.5 |
| 20260906210726 | 94 | 112 | 1.7 | 5.2 | 0.00 | 0.00 | 0.00 | 32 | 1016.7 |
| 20260906205226 | 94 | 125 | 5.2 | 10.4 | 0.00 | 0.00 | 0.00 | 32 | 1016.7 |
| 20260906203725 | 93 | 95 | 2.6 | 8.7 | 0.00 | 0.00 | 0.00 | 33 | 1016.9 |
| 20260906202225 | 93 | 115 | 4.3 | 7.8 | 0.00 | 0.00 | 0.00 | 34 | 1017.0 |
| 20260906200725 | 93 | 99 | 7.8 | 11.3 | 0.00 | 0.00 | 0.00 | 35 | 1017.0 |
| 20260906195225 | 91 | 112 | 4.3 | 2.6 | 0.00 | 0.00 | 0.00 | 36 | 1017.4 |
| 20260906193725 | 92 | 136 | 4.3 | 4.3 | 0.00 | 0.00 | 0.00 | 36 | 1017.6 |
| 20260906192225 | 91 | 117 | 4.3 | 2.6 | 0.00 | 0.00 | 0.00 | 37 | 1017.7 |
| 20260906190725 | 92 | 126 | 1.7 | 2.6 | 0.00 | 0.00 | 0.00 | 36 | 1017.9 |
| 20260906185225 | 92 | 143 | 4.3 | 8.7 | 0.00 | 0.00 | 0.00 | 36 | 1018.1 |
| 20260906183725 | 92 | 152 | 8.7 | 10.4 | 0.00 | 0.00 | 0.00 | 36 | 1018.4 |
| 20260906182225 | 91 | 112 | 4.3 | 7.8 | 0.00 | 0.00 | 0.00 | 38 | 1018.6 |
| 20260906180724 | 91 | 111 | 5.2 | 6.1 | 0.00 | 0.00 | 0.00 | 38 | 1018.8 |
| 20260906175224 | 90 | 157 | 5.2 | 5.2 | 0.00 | 0.00 | 0.00 | 39 | 1019.0 |
| 20260906173724 | 90 | 121 | 5.2 | 7.8 | 0.00 | 0.00 | 0.00 | 40 | 1019.2 |
| 20260906172224 | 90 | 162 | 8.7 | 12.2 | 0.00 | 0.00 | 0.00 | 41 | 1019.3 |
| 20260906170724 | 89 | 122 | 5.2 | 5.2 | 0.00 | 0.00 | 0.00 | 42 | 1019.3 |
| 20260906165224 | 89 | 145 | 7.0 | 10.4 | 0.00 | 0.00 | 0.00 | 43 | 1019.3 |
| 20260906163724 | 88 | 171 | 4.3 | 5.2 | 0.00 | 0.00 | 0.00 | 46 | 1019.5 |
| 20260906162224 | 88 | 158 | 13.0 | 13.0 | 0.00 | 0.00 | 0.00 | 47 | 1019.6 |
| 20260906160723 | 87 | 139 | 13.0 | 13.0 | 0.00 | 0.00 | 0.00 | 46 | 1019.5 |
| 20260906155223 | 86 | 158 | 13.0 | 13.0 | 0.00 | 0.00 | 0.00 | 49 | 1019.1 |
| 20260906153723 | 85 | 205 | 5.2 | 8.7 | 0.00 | 0.00 | 0.00 | 50 | 1019.1 |
| 20260906152223 | 84 | 142 | 5.2 | 10.4 | 0.00 | 0.00 | 0.00 | 52 | 1019.1 |
| 20260906150723 | 84 | 149 | 7.0 | 12.2 | 0.00 | 0.00 | 0.00 | 52 | 1019.0 |
| 20260906145223 | 83 | 149 | 6.1 | 8.7 | 0.00 | 0.00 | 0.00 | 53 | 1019.1 |
| 20260906143723 | 81 | 155 | 6.1 | 7.0 | 0.00 | 0.00 | 0.00 | 54 | 1019.1 |
| 20260906142222 | 81 | 178 | 5.2 | 7.8 | 0.00 | 0.00 | 0.00 | 55 | 1019.0 |
| 20260906140722 | 79 | 165 | 2.6 | 5.2 | 0.00 | 0.00 | 0.00 | 57 | 1018.9 |
| 20260906135222 | 77 | 153 | 2.6 | 4.3 | 0.00 | 0.00 | 0.00 | 59 | 1018.8 |
| 20260906133722 | 76 | 153 | 5.2 | 7.0 | 0.00 | 0.00 | 0.00 | 60 | 1018.5 |
| 20260906132222 | 75 | 149 | 5.2 | 8.7 | 0.00 | 0.00 | 0.00 | 62 | 1018.4 |
| 20260906130722 | 74 | 156 | 2.6 | 4.3 | 0.00 | 0.00 | 0.00 | 62 | 1018.3 |
| 20260906125222 | 74 | 149 | 4.3 | 4.3 | 0.00 | 0.00 | 0.00 | 63 | 1018.3 |
| 20260906123722 | 74 | 135 | 2.6 | 2.6 | 0.00 | 0.00 | 0.00 | 62 | 1018.3 |
| 20260906122222 | 75 | 116 | 0.9 | 2.6 | 0.00 | 0.00 | 0.00 | 61 | 1018.1 |
| 20260906120722 | 75 | 118 | 2.6 | 2.6 | 0.00 | 0.00 | 0.00 | 61 | 1018.0 |
| 20260906115221 | 75 | 124 | 1.7 | 4.3 | 0.00 | 0.00 | 0.00 | 60 | 1017.9 |
| 20260906113721 | 75 | 118 | 1.7 | 2.6 | 0.00 | 0.00 | 0.00 | 60 | 1018.0 |
| 20260906112221 | 75 | 140 | 1.7 | 2.6 | 0.00 | 0.00 | 0.00 | 60 | 1017.9 |
| 20260906110721 | 75 | 130 | 1.7 | 2.6 | 0.00 | 0.00 | 0.00 | 59 | 1018.0 |
| 20260906105221 | 75 | 114 | 1.7 | 2.6 | 0.00 | 0.00 | 0.00 | 59 | 1017.9 |
| 20260906103721 | 76 | 109 | 1.7 | 1.7 | 0.00 | 0.00 | 0.00 | 58 | 1017.8 |
| 20260906102221 | 76 | 144 | 1.7 | 1.7 | 0.00 | 0.00 | 0.00 | 58 | 1017.6 |
| 20260906100721 | 76 | 158 | 2.6 | 4.3 | 0.00 | 0.00 | 0.00 | 57 | 1017.5 |
| 20260906095220 | 77 | 161 | 1.7 | 2.6 | 0.00 | 0.00 | 0.00 | 56 | 1017.6 |
| 20260906093720 | 77 | 131 | 1.7 | 2.6 | 0.00 | 0.00 | 0.00 | 56 | 1017.6 |
| 20260906092220 | 77 | 144 | 2.6 | 4.3 | 0.00 | 0.00 | 0.00 | 56 | 1017.6 |
| 20260906090720 | 77 | 145 | 0.0 | 2.6 | 0.00 | 0.00 | 0.00 | 55 | 1017.7 |
| 20260906085220 | 78 | 128 | 2.6 | 6.1 | 0.00 | 0.00 | 0.00 | 54 | 1017.7 |
| 20260906083720 | 78 | 163 | 1.7 | 2.6 | 0.00 | 0.00 | 0.00 | 54 | 1017.7 |
| 20260906082220 | 78 | 156 | 4.3 | 6.1 | 0.00 | 0.00 | 0.00 | 53 | 1017.5 |
| 20260906080720 | 78 | 142 | 4.3 | 4.3 | 0.00 | 0.00 | 0.00 | 53 | 1017.6 |
| 20260906075219 | 79 | 147 | 4.3 | 6.1 | 0.00 | 0.00 | 0.00 | 53 | 1017.6 |
| 20260906073719 | 79 | 141 | 4.3 | 7.8 | 0.00 | 0.00 | 0.00 | 52 | 1017.6 |
| 20260906072219 | 79 | 128 | 2.6 | 6.1 | 0.00 | 0.00 | 0.00 | 52 | 1017.6 |
| 20260906070719 | 80 | 135 | 4.3 | 4.3 | 0.00 | 0.00 | 0.00 | 51 | 1017.8 |
| 20260906065219 | 80 | 151 | 4.3 | 4.3 | 0.00 | 0.00 | 0.00 | 50 | 1017.8 |
| 20260906063719 | 80 | 126 | 5.2 | 10.4 | 0.00 | 0.00 | 0.00 | 50 | 1017.7 |
| 20260906062219 | 81 | 114 | 2.6 | 4.3 | 0.00 | 0.00 | 0.00 | 49 | 1017.8 |
| 20260906060719 | 81 | 115 | 5.2 | 7.0 | 0.00 | 0.00 | 0.00 | 48 | 1017.8 |
| 20260906055219 | 82 | 139 | 5.2 | 8.7 | 0.00 | 0.00 | 0.00 | 47 | 1017.8 |
| 20260906053718 | 83 | 131 | 5.2 | 7.0 | 0.00 | 0.00 | 0.00 | 46 | 1017.8 |
| 20260906052218 | 83 | 121 | 4.3 | 7.8 | 0.00 | 0.00 | 0.00 | 45 | 1017.7 |
| 20260906050718 | 84 | 126 | 4.3 | 6.1 | 0.00 | 0.00 | 0.00 | 45 | 1017.7 |
| 20260906045218 | 84 | 124 | 2.6 | 6.1 | 0.00 | 0.00 | 0.00 | 44 | 1017.7 |
| 20260906043718 | 85 | 119 | 4.3 | 5.2 | 0.00 | 0.00 | 0.00 | 44 | 1017.7 |
| 20260906042218 | 85 | 123 | 1.7 | 4.3 | 0.00 | 0.00 | 0.00 | 43 | 1017.7 |
| 20260906040718 | 85 | 122 | 4.3 | 4.3 | 0.00 | 0.00 | 0.00 | 42 | 1017.7 |
| 20260906035218 | 85 | 114 | 2.6 | 8.7 | 0.00 | 0.00 | 0.00 | 42 | 1017.6 |
| 20260906033717 | 86 | 133 | 5.2 | 6.1 | 0.00 | 0.00 | 0.00 | 41 | 1017.7 |
| 20260906032217 | 87 | 130 | 2.6 | 6.1 | 0.00 | 0.00 | 0.00 | 40 | 1017.6 |
| 20260906030717 | 87 | 128 | 4.3 | 6.1 | 0.00 | 0.00 | 0.00 | 40 | 1017.3 |
| 20260906025217 | 87 | 130 | 5.2 | 7.8 | 0.00 | 0.00 | 0.00 | 39 | 1016.9 |
| 20260906023717 | 88 | 109 | 6.1 | 7.8 | 0.00 | 0.00 | 0.00 | 38 | 1016.6 |
| 20260906022217 | 88 | 114 | 6.1 | 13.0 | 0.00 | 0.00 | 0.00 | 38 | 1016.5 |
| 20260906020717 | 88 | 112 | 5.2 | 10.4 | 0.00 | 0.00 | 0.00 | 39 | 1016.5 |
| 20260906015217 | 89 | 91 | 5.2 | 6.1 | 0.00 | 0.00 | 0.00 | 39 | 1016.1 |
| 20260906013717 | 89 | 121 | 4.3 | 10.4 | 0.00 | 0.00 | 0.00 | 39 | 1015.7 |
| 20260906012217 | 90 | 111 | 4.3 | 7.0 | 0.00 | 0.00 | 0.00 | 38 | 1015.7 |
| 20260906010716 | 90 | 92 | 4.3 | 6.1 | 0.00 | 0.00 | 0.00 | 37 | 1015.6 |
| 20260906005216 | 91 | 111 | 6.1 | 7.0 | 0.00 | 0.00 | 0.00 | 36 | 1015.5 |
| 20260906003716 | 92 | 105 | 4.3 | 6.1 | 0.00 | 0.00 | 0.00 | 36 | 1015.5 |
| 20260906002216 | 92 | 112 | 6.1 | 7.8 | 0.00 | 0.00 | 0.00 | 36 | 1015.5 |
| 20260906000716 | 93 | 109 | 4.3 | 7.8 | 0.00 | 0.00 | 0.00 | 35 | 1015.2 |
| 20260905235216 | 94 | 118 | 0.9 | 2.6 | 0.00 | 0.00 | 0.00 | 32 | 1014.9 |
| 20260905233716 | 94 | 145 | 4.3 | 7.0 | 0.00 | 0.00 | 0.00 | 32 | 1014.6 |
| 20260905232216 | 94 | 127 | 4.3 | 5.2 | 0.00 | 0.00 | 0.00 | 32 | 1014.2 |
| 20260905230716 | 95 | 117 | 4.3 | 2.6 | 0.00 | 0.00 | 0.00 | 31 | 1014.3 |
| 20260905225216 | 96 | 108 | 6.1 | 10.4 | 0.00 | 0.00 | 0.00 | 30 | 1014.2 |
| 20260905223715 | 96 | 92 | 1.7 | 2.6 | 0.00 | 0.00 | 0.00 | 30 | 1014.3 |
| 20260905222215 | 96 | 131 | 4.3 | 7.0 | 0.00 | 0.00 | 0.00 | 30 | 1014.3 |
| 20260905220715 | 96 | 155 | 7.0 | 10.4 | 0.00 | 0.00 | 0.00 | 30 | 1014.5 |
| 20260905215215 | 96 | 146 | 8.7 | 11.3 | 0.00 | 0.00 | 0.00 | 31 | 1014.6 |
| 20260905213715 | 96 | 120 | 5.2 | 8.7 | 0.00 | 0.00 | 0.00 | 32 | 1014.8 |